Location: Newark
(17.9939°S, 31.0481°E)
Time: 23:50:09
(UTC+00:00)

Courier 1B - Pass Details

Date: 17 November 2019
Orbit: 963 x 1209 km, 28.3° (Epoch: 12 December)

Event Time Altitude Azimuth Distance (km) Brightness Sun altitude
Rises 19:35:17 0° 247° (WSW) 4,082 11.4 -41.8°
Reaches altitude 10° 19:38:17 10° 240° (WSW) 3,136 10.7 -42.3°
Enters shadow 19:43:42 38° 205° (SSW) 1,773 9.0 -43.1°
